Location: Pilipovskiye Korichintsy
(49.1833°N, 27.4667°E)
Time: 12:02:16
(UTC+00:00)

Cosmos 1536 - Pass Details

Date: 14 July 2020
Orbit: 539 x 560 km, 82.5° (Epoch: 07 August)

Event Time Altitude Azimuth Distance (km) Brightness Sun altitude
Exits shadow 00:27:19 16° 176° (S) 1,482 4.5 -13.4°
Maximum altitude 00:30:26 66° 97° (E) 614 3.1 -13.1°
Drops below altitude 10° 00:34:28 10° 15° (NNE) 1,849 6.8 -12.8°
Sets 00:36:39 0° 13° (NNE) 2,745 7.8 -12.6°
